Location: Aula-Vintri
(58.3875°N, 22.4322°E)
Time: 07:33:40
(UTC+00:00)

CENTAUR R/B - Pass Details

Date: 13 October 2019
Orbit: 781 x 1407 km, 63.4° (Epoch: 10 November)

Event Time Altitude Azimuth Distance (km) Brightness Sun altitude
Exits shadow 23:22:27 56° 26° (NNE) 1,380 3.3 -38.0°
Drops below altitude 10° 23:29:17 10° 71° (ENE) 3,298 5.6 -37.7°
Sets 23:32:21 0° 75° (ENE) 4,340 6.3 -37.5°
